EW6940 Weather Reports


time (UTC)temp
C
wind
direction
speed
KPH
gust
KPH
rain 1hr
cm
rain 24hr
cm
rain mn
cm
humidity
%
barometer
mb
20260502130408 10 85 0.0 0.0 0.00 0.00 0.00 58 1010.9
20260502123405 9 85 0.0 0.0 0.00 0.00 0.00 58 1011.0
20260502122905 -17 0.0 0.0 0.00 0.00 0.00 1010.9
20260502122403 -17 0.0 0.0 0.00 0.00 0.00 1011.0
20260502122043 -17 0.0 0.0 0.00 0.00 0.00 1011.3
20260502121918 -17 0.0 0.0 0.00 0.00 0.00 1011.1
20260502120755 -17 0.0 0.0 0.00 0.00 0.00 1011.4
20260502120255 -17 0.0 0.0 0.00 0.00 0.00 1011.5
20260502115437 -17 0.0 0.0 0.00 0.00 0.00 1011.8
20260502114708 -17 0.0 0.0 0.00 0.00 0.00 1011.9
20260502114200 -17 0.0 0.0 0.00 0.00 0.00 1012.0
20260502113701 -17 0.0 0.0 0.00 0.00 0.00 1011.8
20260502113201 -17 0.0 0.0 0.00 0.00 0.00 1011.8
20260502112700 -17 0.0 0.0 0.00 0.00 0.00 1012.0
20260502112109 -17 0.0 0.0 0.00 0.00 0.00 1012.0
20260502111604 -17 0.0 0.0 0.00 0.00 0.00 1012.0
20260502111335 -17 0.0 0.0 0.00 0.00 0.00 1011.9
20260502110604 -17 0.0 0.0 0.00 0.00 0.00 1011.6
20260502105739 -17 0.0 0.0 0.00 0.00 0.00 1011.6
20260502105009 -17 0.0 0.0 0.00 0.00 0.00 1011.6
20260502104502 -17 0.0 0.0 0.00 0.00 0.00 1011.6
20260502104139 -17 0.0 0.0 0.00 0.00 0.00 1011.3
20260502103401 -17 0.0 0.0 0.00 0.00 0.00 1011.2
20260502102808 -17 0.0 0.0 0.00 0.00 0.00 1011.0
20260502102300 -17 0.0 0.0 0.00 0.00 0.00 1010.9
20260502101759 -17 0.0 0.0 0.00 0.00 0.00 1010.9
20260502101207 -17 0.0 0.0 0.00 0.00 0.00 1011.0
20260502100932 -17 0.0 0.0 0.00 0.00 0.00 1010.8
20260502100152 -17 0.0 0.0 0.00 0.00 0.00 1010.9
20260502091158 -17 0.0 0.0 0.00 0.00 0.00 1010.6
20260502090653 -17 0.0 0.0 0.00 0.00 0.00 1010.7
20260502071046 9 91 0.0 0.0 0.00 0.00 0.00 84 1010.3
20260502070548 9 210 0.0 0.0 0.00 0.00 0.00 83 1010.7
20260502070044 9 157 0.0 0.0 0.00 0.00 0.00 83 1010.6
20260502065545 9 160 0.0 0.0 0.00 0.00 0.00 82 1010.9
20260502065311 9 162 0.0 0.0 0.00 0.00 0.00 82 1010.8
20260502064537 9 162 0.0 0.0 0.00 0.00 0.00 82 1010.8
20260502064305 9 162 0.0 0.0 0.00 0.00 0.00 82 1010.8
20260502063806 9 162 0.0 0.0 0.00 0.00 0.00 82 1010.8
20260502063647 9 162 0.0 0.0 0.00 0.00 0.00 81 1010.7
20260502062800 9 98 0.0 0.0 0.00 0.00 0.00 81 1010.7
20260502062028 9 98 0.0 0.0 0.00 0.00 0.00 81 1010.8
20260502061529 9 98 0.0 0.0 0.00 0.00 0.00 80 1010.8
20260502061028 9 98 0.0 0.0 0.00 0.00 0.00 80 1010.8
20260502060526 9 98 0.0 0.0 0.00 0.00 0.00 80 1010.9
20260502060026 9 98 0.0 0.0 0.00 0.00 0.00 80 1011.0
20260502055519 9 98 0.0 0.0 0.00 0.00 0.00 79 1010.8
20260502055018 9 98 0.0 0.0 0.00 0.00 0.00 79 1010.8
20260502054516 10 98 0.0 0.0 0.00 0.00 0.00 79 1010.8
20260502054015 10 98 0.0 0.0 0.00 0.00 0.00 78 1010.8
20260502053514 10 188 0.0 0.0 0.00 0.00 0.00 78 1010.9
20260502053012 10 188 0.0 0.0 0.00 0.00 0.00 78 1011.1
20260502052511 10 176 0.0 0.0 0.00 0.00 0.00 77 1010.9
20260502052010 10 176 0.0 0.0 0.00 0.00 0.00 76 1010.9
20260502051511 10 176 0.0 0.0 0.00 0.00 0.00 76 1010.8
20260502051240 10 176 0.0 0.0 0.00 0.00 0.00 76 1010.9
20260502050508 10 178 0.0 0.0 0.00 0.00 0.00 75 1011.0
20260502050237 10 178 0.0 0.0 0.00 0.00 0.00 76 1011.1
20260502045737 10 179 0.0 0.0 0.00 0.00 0.00 76 1011.0
20260502045006 10 178 0.0 0.0 0.00 0.00 0.00 75 1011.1
20260502044505 10 14 0.0 0.0 0.00 0.00 0.00 76 1011.1
20260502044006 10 14 0.0 0.0 0.00 0.00 0.00 76 1011.1
20260502043736 10 14 0.0 0.0 0.00 0.00 0.00 76 1011.1
20260502043007 10 14 0.0 0.0 0.00 0.00 0.00 76 1011.0
20260502042501 10 15 0.0 0.0 0.00 0.00 0.00 76 1011.0
20260502042003 10 344 0.0 0.0 0.00 0.00 0.00 76 1011.2
20260502041459 10 343 0.0 0.0 0.00 0.00 0.00 76 1011.2
20260502040957 10 343 0.0 0.0 0.00 0.00 0.00 76 1011.1
20260502040456 10 343 0.0 0.0 0.00 0.00 0.00 76 1011.0
20260502040227 10 343 0.0 0.0 0.00 0.00 0.00 75 1011.1
20260502035451 10 343 0.0 0.0 0.00 0.00 0.00 75 1011.1
20260502034956 10 343 0.0 0.0 0.00 0.00 0.00 75 1011.2
20260502034952 10 343 0.0 0.0 0.00 0.00 0.00 75 1011.1
20260502034223 10 342 0.0 0.0 0.00 0.00 0.00 76 1011.2
20260502033450 10 28 0.0 0.0 0.00 0.00 0.00 75 1011.2
20260502032952 10 30 0.0 0.0 0.00 0.00 0.00 76 1011.2
20260502032947 10 323 0.0 0.0 0.00 0.00 0.00 76 1011.4
20260502032214 10 304 0.0 0.0 0.00 0.00 0.00 75 1011.3
20260502031445 10 319 0.0 0.0 0.00 0.00 0.00 75 1011.3
20260502031441 10 319 0.0 0.0 0.00 0.00 0.00 75 1011.4
20260502030438 10 36 0.0 0.0 0.00 0.00 0.00 75 1011.2
20260502025935 10 36 0.0 0.0 0.00 0.00 0.00 74 1011.2
20260502025437 10 36 0.0 0.0 0.00 0.00 0.00 74 1011.1
20260502024936 10 241 0.0 0.0 0.00 0.00 0.00 74 1011.2
20260502024434 10 299 0.0 0.0 0.00 0.00 0.00 73 1011.2
20260502023932 10 296 0.0 0.0 0.00 0.00 0.00 73 1011.2
20260502023433 10 296 0.0 0.0 0.00 0.00 0.00 72 1011.2
20260502022931 11 296 0.0 0.0 0.00 0.00 0.00 71 1011.2
20260502022701 11 296 0.0 0.0 0.00 0.00 0.00 71 1011.2
20260502022158 11 296 0.0 0.0 0.00 0.00 0.00 71 1011.2
20260502021428 11 296 0.0 0.0 0.00 0.00 0.00 70 1011.2
20260502020927 11 254 0.0 0.0 0.00 0.00 0.00 71 1011.1
20260502020657 11 274 0.0 0.0 0.00 0.00 0.00 70 1011.2
20260502015920 11 275 0.0 0.0 0.00 0.00 0.00 70 1011.2
20260502015419 11 272 0.0 0.0 0.00 0.00 0.00 69 1011.1
20260502015145 11 272 0.0 0.0 0.00 0.00 0.00 69 1011.2
20260502014414 11 221 0.0 0.0 0.00 0.00 0.00 69 1011.2
20260502013913 11 256 0.0 0.0 0.00 0.00 0.00 69 1011.1
20260502013412 11 88 0.0 0.0 0.00 0.00 0.00 69 1011.1
20260502012914 11 233 0.0 0.0 0.00 0.00 0.00 68 1011.2
20260502012407 11 283 0.0 0.0 0.00 0.00 0.00 68 1011.0
20260502012137 11 304 0.0 0.0 0.00 0.00 0.00 68 1011.1
20260502011407 11 304 0.0 0.0 0.00 0.00 0.00 68 1011.0
20260502010906 11 293 0.0 0.0 0.00 0.00 0.00 67 1010.9
20260502010406 11 246 0.0 0.0 0.00 0.00 0.00 66 1010.9
20260502005906 11 264 0.0 0.0 0.00 0.00 0.00 65 1010.9
20260502005409 11 257 0.0 0.0 0.00 0.00 0.00 64 1010.7
20260502005404 11 254 0.0 0.0 0.00 0.00 0.00 64 1010.8
20260502004406 11 257 0.0 0.0 0.00 0.00 0.00 63 1010.7
20260502003859 11 238 0.0 0.0 0.00 0.00 0.00 61 1010.6
20260502003630 11 249 0.0 0.0 0.00 0.00 0.00 60 1010.5
20260502002859 11 221 0.0 0.0 0.00 0.00 0.00 58 1010.4
20260502002400 11 221 0.0 0.0 0.00 0.00 0.00 58 1010.3
20260502001857 11 238 0.0 0.0 0.00 0.00 0.00 56 1010.3
20260502001356 12 237 0.0 0.0 0.00 0.00 0.00 55 1010.2
20260502000857 12 209 0.0 0.0 0.00 0.00 0.00 54 1010.0
20260502000357 12 210 0.0 0.0 0.00 0.00 0.00 53 1009.9
20260501235857 12 210 0.0 0.0 0.00 0.00 0.00 52 1009.8
20260501235354 12 210 0.0 0.0 0.00 0.00 0.00 51 1009.7
20260501234854 13 210 0.0 0.0 0.00 0.00 0.00 51 1009.7
20260501234350 13 210 0.0 0.0 0.00 0.00 0.00 50 1009.6
20260501233849 13 210 0.0 0.0 0.00 0.00 0.00 51 1009.5
20260501233349 13 210 0.0 0.0 0.00 0.00 0.00 48 1009.5
20260501232850 13 203 0.0 0.0 0.00 0.00 0.00 48 1009.4
20260501232350 13 269 0.0 0.0 0.00 0.00 0.00 48 1009.4
20260501231843 14 269 0.0 0.0 0.00 0.00 0.00 47 1009.4
20260501231344 14 269 0.0 0.0 0.00 0.00 0.00 48 1009.3
20260501231116 14 283 0.0 0.0 0.00 0.00 0.00 46 1009.2
20260501230342 15 283 0.0 0.0 0.00 0.00 0.00 44 1009.2
20260501225842 15 286 0.0 0.0 0.00 0.00 0.00 43 1009.2
20260501225344 15 319 0.0 0.0 0.00 0.00 0.00 42 1009.1
20260501225111 15 319 0.0 0.0 0.00 0.00 0.00 42 1009.1
20260501224340 15 319 0.0 0.0 0.00 0.00 0.00 42 1009.1
20260501223838 15 319 0.0 0.0 0.00 0.00 0.00 39 1008.9
20260501223339 15 319 0.0 0.0 0.00 0.00 0.00 40 1008.8
20260501223109 16 319 0.0 0.0 0.00 0.00 0.00 39 1008.9
20260501222611 16 319 0.0 0.0 0.00 0.00 0.00 37 1008.9
20260501221838 16 314 0.0 0.0 0.00 0.00 0.00 39 1008.9
20260501221338 16 314 0.0 0.0 0.00 0.00 0.00 37 1008.9
20260501221110 15 287 0.0 0.0 0.00 0.00 0.00 38 1008.8
20260501220340 16 287 0.0 0.0 0.00 0.00 0.00 38 1008.8
20260501215839 16 275 0.0 0.0 0.00 0.00 0.00 40 1008.9
20260501215340 16 276 0.0 0.0 0.00 0.00 0.00 37 1008.9
20260501214839 16 346 0.0 0.0 0.00 0.00 0.00 37 1008.9
20260501214610 16 337 0.0 0.0 0.00 0.00 0.00 37 1009.0
20260501213832 16 226 0.0 0.0 0.00 0.00 0.00 37 1009.0
20260501213559 16 317 0.0 0.0 0.00 0.00 0.00 38 1009.0
20260501212828 16 266 0.0 0.0 0.00 0.00 0.00 38 1008.9
20260501212329 16 294 0.0 0.0 0.00 0.00 0.00 37 1008.9
20260501211824 16 295 0.0 0.0 0.00 0.00 0.00 36 1008.9
20260501211324 16 211 0.0 0.0 0.00 0.00 0.00 36 1008.8
20260501210820 16 272 0.0 0.0 0.00 0.00 0.00 38 1008.7
20260501210322 16 319 0.0 0.0 0.00 0.00 0.00 36 1008.8
20260501210051 16 281 0.0 0.0 0.00 0.00 0.00 37 1008.8
20260501205319 16 314 0.0 0.0 0.00 0.00 0.00 35 1008.8
20260501204822 17 312 0.0 0.0 0.00 0.00 0.00 35 1008.8
20260501204815 17 316 0.0 0.0 0.00 0.00 0.00 36 1008.8
20260501203813 17 226 0.0 0.0 0.00 0.00 0.00 35 1008.8
20260501203314 17 248 0.0 0.0 0.00 0.00 0.00 34 1008.8
20260501202812 17 285 0.0 0.0 0.00 0.00 0.00 35 1008.8
20260501202311 17 285 0.0 0.0 0.00 0.00 0.00 34 1008.9
20260501201809 17 292 0.0 0.0 0.00 0.00 0.00 34 1008.8
20260501201307 17 281 0.0 0.0 0.00 0.00 0.00 35 1008.8
20260501200808 17 303 0.0 0.0 0.00 0.00 0.00 33 1009.0
20260501200308 18 270 0.0 0.0 0.00 0.00 0.00 33 1009.0
20260501195805 18 104 0.0 0.0 0.00 0.00 0.00 34 1008.9
20260501195306 17 228 0.0 0.0 0.00 0.00 0.00 33 1008.8
20260501194802 17 303 0.0 0.0 0.00 0.00 0.00 34 1008.9
20260501194301 17 334 0.0 0.0 0.00 0.00 0.00 35 1009.0
20260501193800 17 321 0.0 0.0 0.00 0.00 0.00 35 1009.0
20260501193534 17 289 0.0 0.0 0.00 0.00 0.00 35 1008.9
20260501192759 17 113 0.0 0.0 0.00 0.00 0.00 35 1008.9
20260501192258 16 245 0.0 0.0 0.00 0.00 0.00 36 1009.1
20260501191751 16 314 0.0 0.0 0.00 0.00 0.00 35 1009.2
20260501191249 16 314 0.0 0.0 0.00 0.00 0.00 36 1009.3
20260501190749 16 315 0.0 0.0 0.00 0.00 0.00 36 1009.4
20260501190245 16 309 0.0 0.0 0.00 0.00 0.00 34 1009.4
20260501185746 16 295 0.0 0.0 0.00 0.00 0.00 36 1009.5
20260501185238 16 115 0.0 0.0 0.00 0.00 0.00 35 1009.5
20260501184737 17 318 0.0 0.0 0.00 0.00 0.00 34 1009.6
20260501184235 17 334 0.0 0.0 0.00 0.00 0.00 35 1009.6
20260501184005 17 320 0.0 0.0 0.00 0.00 0.00 35 1009.6
20260501183233 17 66 0.0 0.0 0.00 0.00 0.00 33 1009.6
20260501182728 17 288 0.0 0.0 0.00 0.00 0.00 35 1009.6
20260501182226 16 133 0.0 0.0 0.00 0.00 0.00 34 1009.6
20260501181732 16 24 0.0 0.0 0.00 0.00 0.00 35 1009.7
20260501181726 16 278 0.0 0.0 0.00 0.00 0.00 34 1009.7
20260501181343 16 318 0.0 0.0 0.00 0.00 0.00 34 1009.7
20260501180226 16 354 0.0 0.0 0.00 0.00 0.00 34 1009.7
20260501175724 16 312 0.0 0.0 0.00 0.00 0.00 34 1009.7
20260501175222 16 260 0.0 0.0 0.00 0.00 0.00 35 1009.7
20260501174722 16 156 0.0 0.0 0.00 0.00 0.00 35 1009.8
20260501174221 16 321 0.0 0.0 0.00 0.00 0.00 35 1009.7
20260501173720 16 278 0.0 0.0 0.00 0.00 0.00 36 1009.7
20260501173219 16 258 0.0 0.0 0.00 0.00 0.00 38 1009.8
20260501172713 16 335 0.0 0.0 0.00 0.00 0.00 37 1009.9
20260501172213 16 326 0.0 0.0 0.00 0.00 0.00 42 1009.9
20260501171712 16 333 0.0 0.0 0.00 0.00 0.00 42 1010.0
20260501171214 16 221 0.0 0.0 0.00 0.00 0.00 39 1010.1
20260501170713 16 285 0.0 0.0 0.00 0.00 0.00 39 1010.1
20260501170212 16 226 0.0 0.0 0.00 0.00 0.00 38 1010.0
20260501165708 16 285 0.0 0.0 0.00 0.00 0.00 38 1010.0
20260501165205 16 282 0.0 0.0 0.00 0.00 0.00 40 1010.0
20260501164706 16 258 0.0 0.0 0.00 0.00 0.00 40 1010.1
20260501164207 16 131 0.0 0.0 0.00 0.00 0.00 41 1010.2
20260501163707 15 283 0.0 0.0 0.00 0.00 0.00 45 1010.3
20260501163207 15 266 0.0 0.0 0.00 0.00 0.00 41 1010.3
20260501162704 15 254 0.0 0.0 0.00 0.00 0.00 43 1010.4
20260501162433 15 308 0.0 0.0 0.00 0.00 0.00 45 1010.3
20260501161933 15 68 0.0 1.6 0.00 0.00 0.00 45 1010.4
20260501161203 15 311 0.0 1.6 0.00 0.00 0.00 41 1010.5
20260501160701 15 344 0.0 0.0 0.00 0.00 0.00 48 1010.5
20260501160201 14 20 0.0 0.0 0.00 0.00 0.00 49 1010.6
20260501155929 13 333 0.0 0.0 0.00 0.00 0.00 50 1010.7
20260501155157 13 293 0.0 3.2 0.00 0.00 0.00 47 1010.7
20260501154656 13 302 0.0 3.2 0.00 0.00 0.00 49 1010.7
20260501154156 13 271 0.0 0.0 0.00 0.00 0.00 49 1010.7
20260501153651 13 41 0.0 0.0 0.00 0.00 0.00 50 1010.7
20260501153153 13 342 0.0 0.0 0.00 0.00 0.00 51 1010.7
20260501152653 12 107 0.0 0.0 0.00 0.00 0.00 51 1010.8
20260501152153 12 321 0.0 4.8 0.00 0.00 0.00 53 1010.9
20260501151919 12 340 0.0 4.8 0.00 0.00 0.00 52 1010.8
20260501151145 12 37 0.0 1.6 0.00 0.00 0.00 51 1010.9
20260501150645 12 323 0.0 3.2 0.00 0.00 0.00 54 1010.9
20260501150415 12 82 0.0 3.2 0.00 0.00 0.00 51 1010.9
20260501145643 12 333 0.0 0.0 0.00 0.00 0.00 54 1010.9
20260501145416 12 75 0.0 0.0 0.00 0.00 0.00 55 1011.0
20260501145301 11 316 0.0 0.0 0.00 0.00 0.00 53 1011.0
20260501144414 11 273 0.0 0.0 0.00 0.00 0.00 56 1010.9
20260501143644 11 319 0.0 0.0 0.00 0.00 0.00 57 1011.0
20260501143144 11 292 0.0 0.0 0.00 0.00 0.00 56 1011.0
20260501142914 11 304 0.0 0.0 0.00 0.00 0.00 58 1011.1
20260501142141 11 315 0.0 3.2 0.00 0.00 0.00 58 1011.1
20260501141638 11 146 0.0 3.2 0.00 0.00 0.00 61 1011.0
20260501141136 11 266 0.0 8.0 0.00 0.00 0.00 60 1011.0
20260501140905 10 324 0.0 8.0 0.00 0.00 0.00 59 1011.0
20260501140750 10 43 0.0 6.4 0.00 0.00 0.00 60 1011.0
20260501140250 10 290 0.0 0.0 0.00 0.00 0.00 64 1011.0
20260501135133 10 332 0.0 3.2 0.00 0.00 0.00 64 1011.0